Вернуться в каталог

STARLINK-34222

АктивенСвязьVLEO
NORAD 64191·PAYLOAD·🇺🇸 United States

Запущен May 28, 2025 с Cape Canaveral Space Force Station

Loading…

Ближайшие Пролёты (ближайшие 24 часа)

TLE

СвежийSource: CelesTrak SupGP

Эпоха: Sep 14, 2026, 22:39 UTC

1 64191C 25113X   26257.94423611  .00073641  00000+0  21739-2 0  2576
2 64191  53.1585 291.3501 0001168  90.8253 168.1253 15.34380858    16

Отслеживайте STARLINK-34222 в реальном времени с AllMySat

Download on the App Store